Torna al catalogo

SL-14 DEB

AttivoPO
NORAD 25203·DEBRIS·🇷🇺 Russia

Lanciato Aug 18, 1987 da Plesetsk Cosmodrome

Loading…

Prossimi Passaggi (prossime 24 ore)

TLE

AggiornatoSource: Space-Track

Epoca: Sep 14, 2026, 15:51 UTC

1 25203U 87068AE  26257.66086477  .00000746  00000-0  28741-3 0  9999
2 25203  82.2666 141.9235 0091999  96.5178 264.6490 14.26843454477866

Traccia SL-14 DEB in tempo reale con AllMySat

Download on the App Store